[[{"header":{"parameterUnit":"m.s-1","parameterCategory":1,"la1":30.2991,"la2":30.254,"lo1":-89.0895,"lo2":-89.0444,"dy":0.0017,"dx":0.0017,"nx":28,"ny":28,"refTime":"2025-09-17T09:00:00:Z","depth":0,"parameterNumber":2,"parameterNumberName":"U-component_of_WINDS"},"data":[0,0,0,0,0,0,0,0,0,0,0,0,0,0,0,0,0,0,0,0,0,0,0,0,0,0,0,0,0,0,0,0,0,0,0,0,0,0,0,0,0,0,0,0,0,0,0,0,0,0,0,0,0,0,0,0,0,0,-1.8766,-1.8765,0,-1.8702,-1.8701,-1.87,-1.8619,-1.8618,-1.8617,-1.8615,-1.8548,-1.8547,-1.8547,0,0,0,0,0,0,0,0,0,0,0,0,0,-1.8816,-1.8816,-1.8766,-1.8765,-1.8764,-1.8702,-1.8701,-1.87,-1.8619,-1.8618,-1.8616,-1.8615,-1.8548,-1.8547,-1.8547,0,0,0,0,0,0,0,0,0,0,0,0,0,-1.8777,-1.8815,-1.8766,-1.8716,-1.8711,-1.8702,-1.8701,-1.87,-1.862,-1.8618,-1.8616,-1.8614,-1.8548,-1.8547,-1.8547,-1.858,0,0,-1.8544,-1.8543,0,0,0,0,0,0,0,0,-1.878,-1.8776,-1.8724,-1.872,-1.8714,-1.8666,-1.8694,-1.866,-1.862,-1.8654,-1.8615,-1.8613,-1.8589,-1.8584,-1.8577,-1.8577,-1.8574,-1.8544,-1.8543,-1.8543,-1.8543,0,0,0,0,0,0,0,-1.8782,-1.8778,-1.874,-1.8724,-1.8717,-1.8697,-1.8689,-1.8687,-1.8633,-1.8651,-1.8645,-1.8639,-1.8585,-1.8578,-1.8574,-1.8573,-1.8544,-1.8543,-1.8542,-1.8542,-1.8597,-1.8599,0,0,0,0,0,0,-1.8793,-1.8781,-1.8742,-1.8738,-1.8743,-1.8698,-1.8689,-1.8684,-1.8633,-1.8623,-1.8641,-1.8635,-1.858,-1.8576,-1.8572,-1.8607,-1.8543,-1.8542,-1.8541,-1.8595,-1.8598,-1.86,0,0,0,0,0,0,-1.8794,-1.879,-1.8745,-1.8758,-1.8751,-1.8699,-1.8693,-1.8683,-1.8675,-1.8625,-1.8615,-1.8643,-1.8578,-1.8573,-1.8579,-1.8604,-1.8542,-1.8541,-1.8593,-1.8596,-1.8599,-1.8679,0,0,0,0,0,0,-1.8796,-1.8791,-1.8804,-1.8759,-1.875,-1.8754,-1.8695,-1.8684,-1.8674,-1.8667,-1.8624,-1.8615,-1.8576,-1.8581,-1.8578,-1.8602,-1.854,-1.8591,-1.8594,-1.8598,-1.8674,-1.8685,-1.8694,0,0,0,0,0,-1.8798,-1.8828,-1.8805,-1.8801,-1.8765,-1.8755,-1.875,-1.8706,-1.8677,-1.8689,-1.8656,-1.8617,-1.8602,-1.8582,-1.8578,-1.8602,-1.8589,-1.8593,-1.8598,-1.867,-1.8683,-1.8694,0,0,0,0,0,0,-1.8877,-1.8822,-1.8795,-1.8812,-1.8789,-1.8742,-1.8755,-1.8721,-1.8705,-1.8699,-1.8643,-1.8634,-1.8647,-1.8625,-1.8604,-1.8632,-1.8589,-1.8593,-1.8646,-1.8657,-1.8667,-1.8672,-1.8539,0,0,0,0,0,-1.8896,-1.8894,-1.8845,-1.8865,-1.8855,-1.8808,-1.8802,-1.8769,-1.8743,-1.8733,-1.8701,-1.8677,-1.8666,-1.8661,-1.8649,-1.8671,-1.866,-1.8686,-1.8696,-1.8704,-1.8708,-1.8718,-1.8728,-1.8615,-1.8615,-1.8615,0,0,-1.8936,-1.8906,-1.8907,-1.888,-1.8859,-1.8857,-1.88,-1.88,-1.8798,-1.8733,-1.8736,-1.8712,-1.8681,-1.8696,-1.87,-1.8678,-1.8737,-1.871,-1.8717,-1.8716,-1.8723,-1.8734,-1.8744,-1.8618,-1.8617,-1.8617,0,0,-1.9008,-1.8985,-1.8998,-1.8979,-1.8947,-1.8915,-1.8919,-1.8877,-1.8859,-1.8862,-1.8813,-1.8809,-1.8793,-1.8773,-1.8761,-1.8826,-1.8788,-1.8824,-1.8874,-1.8885,-1.8894,-1.8901,-1.8924,-1.8933,-1.8828,-1.8828,-1.8828,0,-1.9061,-1.9057,-1.901,-1.9013,-1.9002,-1.8945,-1.8958,-1.894,-1.8907,-1.89,-1.8876,-1.8854,-1.883,-1.8838,-1.8854,-1.8847,-1.8848,-1.8828,-1.8896,-1.8903,-1.891,-1.8931,-1.894,-1.8832,-1.8832,-1.8831,-1.8831,0,-1.9124,-1.9121,-1.9136,-1.9106,-1.9097,-1.9105,-1.9059,-1.9056,-1.9025,-1.8995,-1.8999,-1.8968,-1.8948,-1.8948,-1.8917,-1.8952,-1.8939,-1.8907,-1.8863,-1.8926,-1.8945,-1.8952,-1.8839,-1.8837,-1.8836,-1.8835,0,0,-1.9242,-1.9186,-1.9192,-1.9178,-1.9139,-1.9136,-1.9142,-1.9124,-1.9122,-1.9101,-1.9104,-1.9092,-1.9061,-1.9048,-1.9014,-1.9024,-1.9077,-1.8989,-1.8988,-1.9006,-1.9113,-1.9138,-1.9148,-1.9052,-1.9054,-1.9055,-1.9116,0,-1.9306,-1.9313,-1.9271,-1.9289,-1.9286,-1.9232,-1.9237,-1.9213,-1.9187,-1.918,-1.915,-1.9142,-1.9103,-1.9094,-1.9101,-1.9069,-1.9097,-1.9064,-1.9054,-1.9054,-1.9063,-1.9158,-1.9184,-1.9243,-1.9123,-1.9124,-1.9125,0,-1.9381,-1.9365,-1.9383,-1.9344,-1.9341,-1.9346,-1.9326,-1.9321,-1.9293,-1.9273,-1.9258,-1.922,-1.9223,-1.9182,-1.9184,-1.9162,-1.9156,-1.914,-1.9141,-1.9137,-1.9093,-1.9156,-1.926,-1.9269,-1.9136,-1.9135,-1.9134,0,-1.9465,-1.9448,-1.9456,-1.9446,-1.94,-1.9405,-1.9387,-1.9357,-1.9349,-1.9331,-1.9325,-1.9308,-1.9299,-1.9286,-1.9244,-1.9219,-1.9251,-1.9207,-1.9234,-1.9235,-1.9243,-1.9243,-1.9346,-1.924,-1.924,-1.924,-1.9239,0,-1.954,-1.9554,-1.9494,-1.9499,-1.9512,-1.9464,-1.9478,-1.9453,-1.9428,-1.9427,-1.9379,-1.9379,-1.9324,-1.9318,-1.9285,-1.9292,-1.9288,-1.9271,-1.9262,-1.9275,-1.9277,-1.9269,-1.9264,-1.9242,-1.9241,-1.9241,-1.924,0,-1.9636,-1.9597,-1.9602,-1.9559,-1.9549,-1.956,-1.9523,-1.9526,-1.9496,-1.9496,-1.9493,-1.9447,-1.9437,-1.9394,-1.9374,-1.9352,-1.937,-1.9352,-1.9379,-1.9373,-1.9402,-1.94,-1.9504,-1.9515,-1.9403,-1.9404,-1.9405,0,-1.9687,-1.9696,-1.9654,-1.965,-1.9634,-1.9629,-1.962,-1.9573,-1.9566,-1.9536,-1.9542,-1.9529,-1.9516,-1.9503,-1.9467,-1.9451,-1.9433,-1.9471,-1.943,-1.9443,-1.9433,-1.9433,-1.9433,-1.9479,-1.9481,-1.9482,-1.9483,0,-1.978,-1.9761,-1.9751,-1.9734,-1.9726,-1.971,-1.9692,-1.9691,-1.9639,-1.9634,-1.9624,-1.9614,-1.9594,-1.9581,-1.956,-1.9539,-1.9502,-1.9496,-1.9501,-1.9514,-1.9529,-1.9521,-1.9402,-1.9493,-1.9492,-1.9492,-1.9491,-1.9491,-1.9855,-1.986,-1.9832,-1.9822,-1.9804,-1.9788,-1.9788,-1.9759,-1.975,-1.9731,-1.9703,-1.9697,-1.9669,-1.9637,-1.962,-1.9613,-1.9593,-1.96,-1.9602,-1.9605,-1.9611,-1.9531,-1.9609,-1.9609,-1.9609,-1.9608,-1.9608,0,-1.9945,-1.9925,-1.9917,-1.9893,-1.9885,-1.9852,-1.983,-1.9826,-1.9821,-1.9799,-1.9787,-1.9775,-1.9763,-1.9726,-1.971,-1.9712,-1.9695,-1.9709,-1.9708,-1.9704,-1.9631,-1.9628,-1.9724,-1.9724,-1.9724,-1.9724,-1.9724,-1.9724,-1.9992,-1.9999,-1.9976,-1.9974,-1.9952,-1.9946,-1.9937,-1.9921,-1.9903,-1.9893,-1.9883,-1.9859,-1.9831,-1.9812,-1.9799,-1.9788,-1.9784,-1.9805,-1.9789,-1.9721,-1.971,-1.9699,-1.9696,-1.9804,-1.9805,-1.9862,-1.9863,-1.9863]},{"header":{"parameterUnit":"m.s-1","parameterCategory":1,"la1":30.2991,"la2":30.254,"lo1":-89.0895,"lo2":-89.0444,"dy":0.0017,"dx":0.0017,"nx":28,"ny":28,"refTime":"2025-09-17T09:00:00:Z","depth":0,"parameterNumber":3,"parameterNumberName":"V-component_of_WINDS"},"data":[0,0,0,0,0,0,0,0,0,0,0,0,0,0,0,0,0,0,0,0,0,0,0,0,0,0,0,0,0,0,0,0,0,0,0,0,0,0,0,0,0,0,0,0,0,0,0,0,0,0,0,0,0,0,0,0,0,0,2.46,2.46,0,2.464,2.464,2.4641,2.467,2.4671,2.4671,2.4671,2.4708,2.4709,2.471,0,0,0,0,0,0,0,0,0,0,0,0,0,2.4546,2.4547,2.46,2.46,2.4601,2.464,2.464,2.4641,2.467,2.4671,2.4671,2.4671,2.4708,2.4709,2.471,0,0,0,0,0,0,0,0,0,0,0,0,0,2.4576,2.4547,2.46,2.462,2.4623,2.464,2.464,2.4641,2.467,2.4671,2.4671,2.4671,2.4708,2.4709,2.471,2.4708,0,0,2.4713,2.4714,0,0,0,0,0,0,0,0,2.4574,2.4578,2.4617,2.4619,2.4622,2.4651,2.4635,2.4663,2.467,2.4652,2.4671,2.4672,2.4688,2.4691,2.4698,2.471,2.4712,2.4713,2.4714,2.4714,2.4715,0,0,0,0,0,0,0,2.4572,2.4576,2.4616,2.4617,2.462,2.4627,2.4631,2.4641,2.4667,2.4654,2.4656,2.466,2.469,2.4696,2.4699,2.4712,2.4713,2.4714,2.4715,2.4715,2.4726,2.4726,0,0,0,0,0,0,2.4567,2.4575,2.4614,2.4617,2.4599,2.4627,2.4633,2.4641,2.4667,2.4672,2.466,2.4662,2.4694,2.4697,2.47,2.47,2.4714,2.4715,2.4716,2.4726,2.4726,2.4725,0,0,0,0,0,0,2.4566,2.4571,2.4613,2.4596,2.4602,2.4628,2.4637,2.4641,2.4648,2.4672,2.4677,2.4662,2.4695,2.4699,2.4706,2.4702,2.4716,2.4717,2.4727,2.4726,2.4726,2.47,0,0,0,0,0,0,2.4565,2.457,2.457,2.4596,2.4603,2.4619,2.4637,2.4642,2.465,2.4653,2.4675,2.4679,2.4695,2.4705,2.4708,2.4704,2.4718,2.4727,2.4726,2.4726,2.4702,2.4699,2.4697,0,0,0,0,0,2.4563,2.4561,2.457,2.4575,2.4604,2.4619,2.4623,2.4642,2.465,2.465,2.4666,2.4679,2.4702,2.4705,2.4709,2.4705,2.4728,2.4727,2.4726,2.4703,2.47,2.4697,0,0,0,0,0,0,2.4532,2.4565,2.4575,2.4582,2.4598,2.4624,2.4625,2.4638,2.4651,2.4652,2.4675,2.468,2.4685,2.4696,2.4699,2.4705,2.4717,2.4716,2.4698,2.4695,2.4693,2.4689,2.4719,0,0,0,0,0,2.4527,2.4537,2.4564,2.4568,2.4575,2.4599,2.4606,2.462,2.4636,2.4642,2.4658,2.4673,2.4684,2.469,2.4701,2.4704,2.4709,2.4703,2.4701,2.4699,2.4698,2.47,2.4698,2.4723,2.4723,2.4723,0,0,2.4514,2.4534,2.4538,2.4562,2.4576,2.4585,2.4604,2.4613,2.462,2.4643,2.4652,2.4664,2.4682,2.4687,2.4691,2.4697,2.4692,2.4698,2.4696,2.4696,2.4699,2.4696,2.4694,2.4722,2.4722,2.4722,0,0,2.4497,2.4513,2.4518,2.4532,2.4553,2.4569,2.457,2.4594,2.4604,2.4613,2.4631,2.4639,2.4657,2.4669,2.4678,2.4666,2.4679,2.4669,2.4656,2.4658,2.4656,2.4654,2.465,2.4648,2.4669,2.4669,2.4669,0,2.4479,2.4495,2.4518,2.4526,2.4536,2.456,2.4564,2.4576,2.4599,2.4605,2.4612,2.4636,2.4649,2.4658,2.4655,2.4661,2.4662,2.4666,2.4655,2.4653,2.4652,2.4648,2.4646,2.4667,2.4668,2.4668,2.4668,0,2.4472,2.4483,2.4484,2.4507,2.4517,2.4523,2.4546,2.4553,2.4567,2.4581,2.4591,2.4608,2.4623,2.4627,2.4639,2.4637,2.464,2.4651,2.4662,2.4648,2.4644,2.4643,2.4665,2.4666,2.4666,2.4667,0,0,2.4435,2.4472,2.4472,2.4484,2.4509,2.4517,2.4525,2.4541,2.4547,2.4562,2.4568,2.4583,2.4594,2.4603,2.4617,2.4619,2.4609,2.4629,2.463,2.4624,2.4607,2.4598,2.4596,2.4617,2.4617,2.4617,2.4605,0,2.4421,2.4437,2.4458,2.4467,2.4477,2.45,2.4506,2.4522,2.4536,2.4546,2.4561,2.4572,2.4585,2.4591,2.4594,2.4609,2.4605,2.461,2.4622,2.4622,2.4616,2.4595,2.4585,2.4573,2.4604,2.4604,2.4604,0,2.4407,2.4423,2.4432,2.4458,2.4463,2.4469,2.4486,2.4495,2.4514,2.4524,2.4535,2.4551,2.4559,2.457,2.4581,2.4584,2.459,2.4599,2.4599,2.46,2.4611,2.4594,2.457,2.4568,2.4602,2.4602,2.4602,0,2.4379,2.4403,2.4412,2.442,2.4451,2.4454,2.4466,2.4485,2.4494,2.4509,2.4514,2.4529,2.4537,2.4548,2.4567,2.4573,2.4575,2.4588,2.4583,2.4583,2.4582,2.4581,2.4557,2.4587,2.4587,2.4587,2.4587,0,2.4361,2.4366,2.44,2.4405,2.4411,2.4435,2.444,2.4454,2.4471,2.4479,2.45,2.4506,2.4532,2.4541,2.4556,2.4563,2.4566,2.4574,2.4577,2.4571,2.457,2.4575,2.4576,2.4586,2.4587,2.4587,2.4587,0,2.433,2.4353,2.4364,2.4393,2.44,2.4403,2.4427,2.4432,2.4448,2.4458,2.4462,2.4486,2.4499,2.4519,2.4537,2.4547,2.455,2.4557,2.4544,2.4546,2.454,2.454,2.4517,2.4516,2.4547,2.4547,2.4546,0,2.4316,2.4321,2.435,2.4358,2.437,2.4382,2.4392,2.4416,2.4425,2.4447,2.4449,2.4464,2.4476,2.4494,2.4513,2.4527,2.4533,2.4525,2.4535,2.4529,2.4533,2.4532,2.4532,2.4522,2.4521,2.4521,2.4521,0,2.429,2.4302,2.4315,2.4333,2.4344,2.4359,2.4375,2.4379,2.4407,2.4416,2.4429,2.4439,2.4458,2.4472,2.4488,2.45,2.4514,2.4517,2.4517,2.451,2.4502,2.4506,2.4537,2.4517,2.4518,2.4518,2.4518,2.4518,2.4267,2.4272,2.4294,2.4309,2.4324,2.4338,2.4345,2.4363,2.4375,2.4393,2.4407,2.4419,2.4438,2.4462,2.4473,2.4482,2.4489,2.4488,2.4488,2.4487,2.4485,2.4502,2.4486,2.4486,2.4486,2.4486,2.4486,0,2.4241,2.4257,2.427,2.4293,2.4304,2.4319,2.4337,2.4345,2.4357,2.4373,2.4386,2.4402,2.4415,2.4436,2.445,2.4454,2.4461,2.4457,2.4456,2.4459,2.4478,2.4477,2.4451,2.4451,2.4451,2.4451,2.4451,2.4451,2.4229,2.4239,2.4253,2.427,2.4286,2.4299,2.4309,2.4322,2.4336,2.4353,2.4364,2.4378,2.4396,2.4413,2.4426,2.4431,2.4435,2.4429,2.4437,2.4454,2.4457,2.446,2.4459,2.443,2.443,2.4416,2.4416,2.4416]}]]